Location: Johnson City
(36.3130°N, 82.3540°W)
Time: 13:38:29
(UTC-04:00)

Envisat - Visible Passes

Search period start: 22 October 2018 00:00
Search period end: 01 November 2018 00:00
Orbit: 764 x 766 km, 98.2° (Epoch: 22 October)

Date Brightness Start Highest point End Pass type
(mag) Time Alt. Az. Time Alt. Az. Time Alt. Az.
22 Oct 3.8 19:41:41 10° SE 19:45:59 29° ENE 19:50:19 10° N visible
22 Oct 4.8 21:20:34 10° SSW 21:24:54 28° W 21:29:17 10° NW visible
23 Oct 4.7 19:07:23 10° E 19:09:39 13° ENE 19:11:56 10° NE visible
23 Oct 3.2 20:43:01 10° S 20:48:03 68° WSW 20:53:07 10° NNW visible
24 Oct 3.1 20:06:29 10° SSE 20:11:23 52° ENE 20:16:18 10° N visible
24 Oct 5.6 21:47:40 10° SW 21:50:39 16° W 21:53:39 10° NW visible
25 Oct 4.1 19:30:59 10° ESE 19:34:55 23° ENE 19:38:50 10° NNE visible
25 Oct 4.4 21:09:01 10° SSW 21:13:40 36° W 21:18:21 10° NNW visible
26 Oct 2.9 20:31:47 10° SSE 20:36:52 87° WSW 20:41:58 10° NNW visible
27 Oct 3.4 19:55:33 10° SE 20:00:15 40° ENE 20:04:59 10° N visible
27 Oct 5.3 21:35:41 10° SW 21:39:23 20° W 21:43:05 10° NW visible
28 Oct 4.3 19:20:27 10° ESE 19:23:50 18° ENE 19:27:14 10° NNE visible
28 Oct 3.9 20:57:35 10° S 21:02:27 47° W 21:07:20 10° NNW visible
29 Oct 2.8 20:20:39 10° SSE 20:25:42 74° ENE 20:30:47 10° N visible
29 Oct 6.0 22:04:14 10° W 22:05:11 10° W 22:06:07 10° W visible
30 Oct 3.7 19:44:42 10° SE 19:49:08 32° ENE 19:53:36 10° N visible
30 Oct 4.9 21:23:56 10° SSW 21:28:07 26° W 21:32:20 10° NW visible
31 Oct 4.6 19:10:07 10° E 19:12:47 14° ENE 19:15:27 10° NNE visible
31 Oct 3.4 20:46:15 10° S 20:51:14 61° W 20:56:17 10° NNW visible
